TimeCDT,TemperatureF,Dew PointF,Humidity,Sea Level PressureIn,VisibilityMPH,Wind Direction,Wind SpeedMPH,Gust SpeedMPH,PrecipitationIn,Events,Conditions,WindDirDegrees,DateUTC
12:15 AM,70.2,59.0,68,29.82,10.0,SSE,3.5,-,N/A,,Clear,160,2013-05-17 05:15:00
12:35 AM,70.7,58.8,66,29.82,10.0,Calm,Calm,-,N/A,,Clear,0,2013-05-17 05:35:00
12:55 AM,70.9,59.0,66,29.83,10.0,SSW,3.5,-,N/A,,Clear,200,2013-05-17 05:55:00
1:15 AM,70.7,59.0,66,29.83,10.0,Calm,Calm,-,N/A,,Clear,0,2013-05-17 06:15:00
1:35 AM,69.8,59.0,68,29.82,10.0,South,3.5,-,N/A,,Clear,170,2013-05-17 06:35:00
1:55 AM,68.5,59.0,72,29.82,10.0,Calm,Calm,-,N/A,,Clear,0,2013-05-17 06:55:00
2:15 AM,68.0,59.0,73,29.82,10.0,Calm,Calm,-,N/A,,Clear,0,2013-05-17 07:15:00
2:35 AM,68.0,59.2,73,29.82,10.0,Calm,Calm,-,N/A,,Clear,0,2013-05-17 07:35:00
2:55 AM,68.5,59.2,72,29.82,10.0,Calm,Calm,-,N/A,,Clear,0,2013-05-17 07:55:00
3:15 AM,68.4,59.4,73,29.82,10.0,Calm,Calm,-,N/A,,Clear,0,2013-05-17 08:15:00
3:35 AM,68.0,59.4,74,29.83,10.0,Calm,Calm,-,N/A,,Scattered Clouds,0,2013-05-17 08:35:00
3:55 AM,66.4,60.4,81,29.83,10.0,Calm,Calm,-,N/A,,Scattered Clouds,0,2013-05-17 08:55:00
4:15 AM,67.1,59.9,78,29.83,10.0,SE,3.5,-,N/A,,Clear,130,2013-05-17 09:15:00
4:35 AM,66.6,59.9,79,29.83,10.0,Calm,Calm,-,N/A,,Clear,0,2013-05-17 09:35:00
4:55 AM,66.6,60.1,80,29.84,10.0,Calm,Calm,-,N/A,,Clear,0,2013-05-17 09:55:00
5:15 AM,66.2,60.1,81,29.84,10.0,Calm,Calm,-,N/A,,Clear,0,2013-05-17 10:15:00
5:35 AM,65.3,60.1,83,29.85,10.0,SE,3.5,-,N/A,,Clear,140,2013-05-17 10:35:00
5:55 AM,65.1,60.1,84,29.85,10.0,Calm,Calm,-,N/A,,Clear,0,2013-05-17 10:55:00
6:15 AM,64.4,59.5,84,29.86,10.0,SE,4.6,-,N/A,,Clear,130,2013-05-17 11:15:00
6:35 AM,64.2,59.7,85,29.87,10.0,SE,4.6,-,N/A,,Clear,140,2013-05-17 11:35:00
7:15 AM,65.1,60.1,84,29.89,10.0,SSE,4.6,-,N/A,,Clear,150,2013-05-17 12:15:00
7:35 AM,64.8,60.3,85,29.89,10.0,SSE,4.6,-,N/A,,Clear,160,2013-05-17 12:35:00
7:55 AM,65.7,61.2,85,29.89,10.0,SE,3.5,-,N/A,,Clear,140,2013-05-17 12:55:00
8:15 AM,67.3,60.6,79,29.90,10.0,South,4.6,-,N/A,,Clear,170,2013-05-17 13:15:00
8:35 AM,67.8,60.8,78,29.90,10.0,SSE,3.5,-,N/A,,Clear,160,2013-05-17 13:35:00
8:55 AM,69.6,61.5,75,29.90,10.0,South,4.6,-,N/A,,Clear,170,2013-05-17 13:55:00
9:15 AM,71.8,61.9,71,29.90,10.0,SSE,3.5,-,N/A,,Clear,150,2013-05-17 14:15:00
9:35 AM,72.9,61.7,68,29.90,10.0,SW,3.5,-,N/A,,Clear,220,2013-05-17 14:35:00
9:55 AM,72.9,61.9,68,29.90,10.0,South,3.5,-,N/A,,Clear,190,2013-05-17 14:55:00
10:15 AM,74.3,62.2,66,29.90,10.0,SW,3.5,-,N/A,,Clear,220,2013-05-17 15:15:00
10:35 AM,75.4,62.8,65,29.89,10.0,Calm,Calm,-,N/A,,Clear,0,2013-05-17 15:35:00
10:55 AM,76.5,63.1,63,29.89,10.0,ESE,6.9,-,N/A,,Clear,120,2013-05-17 15:55:00
11:15 AM,77.4,62.1,59,29.89,10.0,SSW,6.9,-,N/A,,Clear,200,2013-05-17 16:15:00
11:35 AM,79.2,61.0,54,29.89,10.0,SSE,8.1,17.3,N/A,,Clear,150,2013-05-17 16:35:00
11:55 AM,79.2,60.3,52,29.88,10.0,South,9.2,-,N/A,,Scattered Clouds,170,2013-05-17 16:55:00
12:15 PM,79.9,60.6,52,29.88,10.0,SSE,8.1,-,N/A,,Clear,160,2013-05-17 17:15:00
12:35 PM,80.4,59.7,49,29.88,10.0,South,6.9,-,N/A,,Scattered Clouds,180,2013-05-17 17:35:00
12:55 PM,81.0,59.5,48,29.87,10.0,SSE,9.2,-,N/A,,Scattered Clouds,160,2013-05-17 17:55:00
1:15 PM,81.7,59.9,47,29.86,10.0,SSE,10.4,-,N/A,,Scattered Clouds,150,2013-05-17 18:15:00
1:35 PM,81.5,59.7,47,29.86,10.0,SSE,6.9,-,N/A,,Clear,150,2013-05-17 18:35:00
2:15 PM,82.4,59.0,45,29.85,10.0,SSE,8.1,16.1,N/A,,Scattered Clouds,150,2013-05-17 19:15:00
2:35 PM,83.8,60.1,44,29.85,10.0,SSE,10.4,-,N/A,,Scattered Clouds,150,2013-05-17 19:35:00
2:55 PM,84.2,59.4,43,29.85,10.0,SSE,8.1,-,N/A,,Scattered Clouds,160,2013-05-17 19:55:00
3:15 PM,84.2,59.7,43,29.84,10.0,SE,9.2,-,N/A,,Scattered Clouds,140,2013-05-17 20:15:00
3:35 PM,82.8,59.4,45,29.84,10.0,ESE,12.7,18.4,N/A,,Scattered Clouds,120,2013-05-17 20:35:00
3:55 PM,84.7,60.1,43,29.83,10.0,SE,8.1,17.3,N/A,,Scattered Clouds,140,2013-05-17 20:55:00
4:15 PM,83.5,58.6,43,29.83,10.0,SE,9.2,-,N/A,,Scattered Clouds,140,2013-05-17 21:15:00
4:35 PM,84.9,59.4,42,29.83,10.0,SE,8.1,-,N/A,,Scattered Clouds,130,2013-05-17 21:35:00
4:55 PM,85.3,59.7,42,29.82,10.0,SE,10.4,-,N/A,,Scattered Clouds,140,2013-05-17 21:55:00
5:15 PM,85.3,57.9,39,29.82,10.0,SSE,8.1,-,N/A,,Scattered Clouds,160,2013-05-17 22:15:00
5:35 PM,84.9,59.7,42,29.82,10.0,SSE,11.5,17.3,N/A,,Scattered Clouds,150,2013-05-17 22:35:00
5:55 PM,84.6,58.6,41,29.82,10.0,SSE,9.2,-,N/A,,Scattered Clouds,150,2013-05-17 22:55:00
6:15 PM,84.2,59.4,43,29.82,10.0,SE,9.2,-,N/A,,Clear,140,2013-05-17 23:15:00
6:35 PM,84.2,58.5,41,29.82,10.0,SE,8.1,-,N/A,,Clear,140,2013-05-17 23:35:00
6:55 PM,83.1,58.6,43,29.81,10.0,SE,11.5,-,N/A,,Clear,140,2013-05-17 23:55:00
7:15 PM,82.8,58.6,44,29.82,10.0,SE,11.5,-,N/A,,Clear,140,2013-05-18 00:15:00
7:35 PM,82.2,58.5,44,29.82,10.0,SSE,9.2,-,N/A,,Scattered Clouds,150,2013-05-18 00:35:00
7:55 PM,81.0,59.2,47,29.82,10.0,SE,10.4,-,N/A,,Clear,140,2013-05-18 00:55:00
8:15 PM,79.3,59.4,50,29.83,10.0,SE,10.4,-,N/A,,Clear,130,2013-05-18 01:15:00
8:35 PM,78.1,59.5,53,29.83,10.0,SE,11.5,-,N/A,,Clear,130,2013-05-18 01:35:00
8:55 PM,77.0,59.9,55,29.85,10.0,SE,8.1,-,N/A,,Clear,130,2013-05-18 01:55:00
9:15 PM,75.7,59.9,58,29.86,10.0,SE,6.9,-,N/A,,Clear,130,2013-05-18 02:15:00
9:35 PM,74.8,59.9,60,29.87,10.0,SE,5.8,-,N/A,,Clear,140,2013-05-18 02:35:00
9:55 PM,74.5,59.9,60,29.88,10.0,SE,5.8,-,N/A,,Clear,130,2013-05-18 02:55:00
10:15 PM,73.0,59.9,63,29.88,10.0,SE,6.9,-,N/A,,Clear,130,2013-05-18 03:15:00
10:35 PM,71.8,59.9,66,29.88,10.0,SE,5.8,-,N/A,,Clear,130,2013-05-18 03:35:00
10:55 PM,71.2,59.9,67,29.89,10.0,SE,6.9,-,N/A,,Clear,130,2013-05-18 03:55:00
11:15 PM,70.5,59.9,69,29.89,10.0,SE,5.8,-,N/A,,Clear,140,2013-05-18 04:15:00
11:35 PM,70.3,59.9,69,29.89,10.0,SE,5.8,-,N/A,,Clear,130,2013-05-18 04:35:00
11:55 PM,70.0,59.9,70,29.89,10.0,SE,5.8,-,N/A,,Clear,130,2013-05-18 04:55:00